Date,TemperatureHighF,TemperatureAvgF,TemperatureLowF,DewpointHighF,DewpointAvgF,DewpointLowF,HumidityHigh,HumidityAvg,HumidityLow,PressureMaxIn,PressureMinIn,WindSpeedMaxMPH,WindSpeedAvgMPH,GustSpeedMaxMPH,PrecipitationSumIn
2013-4-1,56.0,47.1,39.0,33.0,27.3,20.0,69,48,28,0.00,40.00,21,13,44,0.00
2013-4-2,65.0,55.4,46.0,35.0,23.1,18.0,43,29,16,0.00,40.00,12,5,22,0.00
2013-4-3,69.0,62.5,52.0,28.0,22.6,19.0,29,22,17,0.00,40.00,14,9,26,0.00
2013-4-4,62.0,57.0,48.0,36.0,29.2,17.0,57,35,20,0.00,40.00,27,18,66,0.00
2013-4-5,64.0,54.9,47.0,36.0,28.0,8.0,64,39,12,0.00,40.00,30,18,54,0.00
2013-4-6,67.0,59.4,53.0,33.0,22.8,3.0,36,25,10,0.00,40.00,31,15,42,0.00
2013-4-7,68.0,56.6,46.0,34.0,26.4,3.0,55,33,10,0.00,40.00,34,16,53,0.00
2013-4-8,46.0,39.6,33.0,34.0,27.7,18.0,94,63,43,0.00,40.00,33,19,57,0.07
2013-4-9,57.0,48.8,38.0,18.0,1.9,-10.0,43,15,6,0.00,40.00,26,11,80,0.01
2013-4-10,72.0,57.4,45.0,23.0,8.7,0.0,25,15,8,0.00,40.00,14,7,49,0.00
2013-4-11,70.0,62.1,54.0,28.0,18.4,14.0,30,19,12,0.00,40.00,21,11,40,0.00
2013-4-12,71.0,62.7,52.0,24.0,21.9,17.0,29,21,16,0.00,40.00,21,11,36,0.00
2013-4-13,69.0,61.1,56.0,32.0,23.6,-5.0,38,25,7,0.00,40.00,34,22,62,0.00
2013-4-14,68.0,59.5,51.0,34.0,25.8,12.0,41,28,14,0.00,40.00,34,21,64,0.00
2013-4-15,53.0,48.0,40.0,28.0,21.3,13.0,45,35,27,0.00,40.00,41,26,80,0.00
2013-4-16,46.0,38.5,30.0,20.0,14.1,7.0,54,37,27,0.00,40.00,41,17,80,0.00
2013-4-17,54.0,43.7,34.0,9.0,1.5,-4.0,31,18,11,0.00,40.00,13,8,33,0.00
2013-4-18,58.0,46.8,37.0,3.0,-0.4,-3.0,22,14,9,0.00,40.00,12,6,32,0.00
2013-4-19,67.0,57.3,46.0,22.0,6.3,-3.0,22,13,8,0.00,40.00,20,8,37,0.00
2013-4-20,72.0,64.1,52.0,29.0,18.3,4.0,27,18,9,0.00,40.00,16,9,29,0.00
2013-4-21,78.0,67.4,57.0,28.0,18.2,0.0,24,16,9,0.00,40.00,25,10,35,0.00
2013-4-22,75.0,69.2,62.0,26.0,19.1,-2.0,22,15,6,0.00,40.00,32,14,41,0.00
2013-4-23,68.0,61.1,54.0,25.0,13.5,6.0,32,17,9,0.00,40.00,18,6,41,0.00
2013-4-24,68.0,61.2,57.0,24.0,7.9,-3.0,27,13,6,0.00,40.00,17,8,32,0.00
2013-4-25,71.0,61.6,53.0,27.0,13.6,-1.0,29,16,7,0.00,40.00,20,10,33,0.00
2013-4-26,76.0,66.9,60.0,32.0,15.0,-1.0,29,16,6,0.00,40.00,19,9,30,0.00
2013-4-27,80.0,70.4,60.0,23.0,14.7,7.0,20,13,7,0.00,40.00,19,9,29,0.00
2013-4-28,82.0,73.4,65.0,30.0,20.1,12.0,23,14,7,0.00,40.00,21,11,32,0.00
2013-4-29,81.0,74.3,64.0,36.0,24.4,18.0,32,16,10,0.00,40.00,28,11,40,0.00
2013-4-30,78.0,68.2,62.0,37.0,30.1,24.0,33,25,17,0.00,40.00,28,20,43,0.00